EZY49BV EGAE-EGGP

Flight info

Callsign EZY49BV
Flight time 0h 36m
Altitude 25000
Route BELZU L10 DUFFY L15 PEPOD Q38 SOSIM/N0366F230 L28 PENIL
Aircraft A319/M-SDE2E3FGIJ1RWXYZ/LB1

Departure

Time 2026-05-04 12:12
Airport City of Derry Airport (EGAE)

Arrival

Time 2026-05-04 12:49
Airport Liverpool John Lennon Airport (EGGP)
Time Latitude Longitude Altitude Speed Heading
2026-05-04 11:38 55.04017 -7.15678 31 ft 0 kts 168°
2026-05-04 12:05 55.04024 -7.15681 31 ft 4 kts 168°
2026-05-04 12:05 55.04044 -7.15689 31 ft 4 kts 170°
2026-05-04 12:05 55.04070 -7.15689 31 ft 4 kts 202°
2026-05-04 12:05 55.04088 -7.15663 30 ft 4 kts 254°
2026-05-04 12:06 55.04089 -7.15657 30 ft 0 kts 258°
2026-05-04 12:08 55.04088 -7.15662 30 ft 2 kts 258°
2026-05-04 12:08 55.04080 -7.15726 31 ft 8 kts 258°
2026-05-04 12:08 55.04071 -7.15829 31 ft 9 kts 275°
2026-05-04 12:08 55.04118 -7.15887 31 ft 9 kts 348°
2026-05-04 12:09 55.04183 -7.15911 31 ft 10 kts 346°
2026-05-04 12:09 55.04253 -7.15941 31 ft 11 kts 347°
2026-05-04 12:09 55.04318 -7.15904 32 ft 10 kts 60°
2026-05-04 12:09 55.04343 -7.15768 30 ft 15 kts 73°
2026-05-04 12:10 55.04375 -7.15585 29 ft 16 kts 73°
2026-05-04 12:10 55.04410 -7.15384 27 ft 19 kts 72°
2026-05-04 12:10 55.04448 -7.15162 24 ft 18 kts 73°
2026-05-04 12:10 55.04482 -7.14965 22 ft 14 kts 73°
2026-05-04 12:11 55.04513 -7.14826 21 ft 10 kts 61°
2026-05-04 12:11 55.04517 -7.14770 20 ft 3 kts 189°
2026-05-04 12:11 55.04509 -7.14804 20 ft 3 kts 259°
2026-05-04 12:11 55.04508 -7.14813 20 ft 0 kts 253°
2026-05-04 12:12 55.04505 -7.14826 20 ft 14 kts 253°
2026-05-04 12:12 55.04395 -7.15470 29 ft 93 kts 252°
2026-05-04 12:12 55.04145 -7.16906 40 ft 153 kts 253°
2026-05-04 12:12 55.03825 -7.18727 725 ft 152 kts 254°
2026-05-04 12:13 55.03517 -7.20502 1501 ft 158 kts 255°
2026-05-04 12:14 54.96429 -7.10734 6942 ft 282 kts 117°
2026-05-04 12:15 54.95497 -7.07679 7941 ft 288 kts 119°
2026-05-04 12:15 54.94513 -7.04616 8913 ft 293 kts 120°
2026-05-04 12:15 54.93475 -7.01499 9885 ft 298 kts 121°
2026-05-04 12:15 54.92414 -6.98372 10514 ft 314 kts 121°
2026-05-04 12:16 54.91256 -6.94997 10991 ft 333 kts 121°
2026-05-04 12:16 54.90050 -6.91503 11801 ft 340 kts 121°
2026-05-04 12:16 54.88822 -6.87954 12683 ft 344 kts 121°
2026-05-04 12:16 54.87580 -6.84367 13618 ft 348 kts 121°
2026-05-04 12:17 54.86327 -6.80746 14402 ft 352 kts 121°
2026-05-04 12:17 54.85057 -6.77083 15173 ft 356 kts 121°
2026-05-04 12:17 54.83773 -6.73378 15943 ft 359 kts 121°
2026-05-04 12:17 54.82475 -6.69639 16713 ft 363 kts 121°
2026-05-04 12:18 54.81179 -6.65908 17490 ft 366 kts 121°
2026-05-04 12:18 54.79857 -6.62106 18265 ft 369 kts 121°
2026-05-04 12:18 54.78534 -6.58307 18920 ft 373 kts 120°
2026-05-04 12:18 54.77189 -6.54454 19582 ft 376 kts 120°
2026-05-04 12:19 54.75828 -6.50563 20262 ft 379 kts 120°
2026-05-04 12:19 54.74455 -6.46643 20950 ft 381 kts 120°
2026-05-04 12:19 54.73541 -6.44038 21384 ft 384 kts 120°
2026-05-04 12:19 54.72145 -6.40071 22050 ft 387 kts 120°
2026-05-04 12:20 54.70276 -6.34769 22947 ft 391 kts 120°
2026-05-04 12:20 54.68850 -6.30737 23617 ft 394 kts 120°
2026-05-04 12:20 54.67898 -6.28048 23996 ft 396 kts 120°
2026-05-04 12:20 54.66454 -6.23967 24541 ft 400 kts 119°
2026-05-04 12:21 54.64967 -6.19873 24964 ft 403 kts 121°
2026-05-04 12:21 54.63412 -6.15827 25084 ft 403 kts 122°
2026-05-04 12:21 54.61844 -6.11901 25110 ft 388 kts 123°
2026-05-04 12:21 54.60348 -6.08223 25110 ft 373 kts 123°
2026-05-04 12:22 54.58884 -6.04627 25113 ft 371 kts 122°
2026-05-04 12:22 54.57404 -6.00955 25112 ft 373 kts 122°
2026-05-04 12:22 54.55931 -5.97268 25112 ft 373 kts 122°
2026-05-04 12:22 54.54471 -5.93593 25111 ft 374 kts 122°
2026-05-04 12:23 54.53003 -5.89899 25111 ft 374 kts 122°
2026-05-04 12:23 54.51363 -5.86420 25110 ft 376 kts 133°
2026-05-04 12:23 54.49382 -5.83535 25111 ft 379 kts 143°
2026-05-04 12:23 54.47214 -5.80942 25111 ft 379 kts 143°
2026-05-04 12:24 54.45046 -5.78339 25110 ft 379 kts 143°
2026-05-04 12:24 54.42888 -5.75743 25109 ft 379 kts 143°
2026-05-04 12:24 54.40720 -5.73143 25108 ft 379 kts 143°
2026-05-04 12:24 54.38557 -5.70558 25107 ft 379 kts 143°
2026-05-04 12:25 54.36417 -5.68004 25112 ft 379 kts 143°
2026-05-04 12:25 54.34250 -5.65419 25112 ft 378 kts 142°
2026-05-04 12:25 54.32085 -5.62839 25113 ft 378 kts 142°
2026-05-04 12:25 54.29928 -5.60267 25113 ft 378 kts 142°
2026-05-04 12:26 54.27829 -5.57571 25111 ft 376 kts 135°
2026-05-04 12:26 54.26045 -5.54338 25110 ft 372 kts 124°
2026-05-04 12:26 54.24537 -5.50760 25110 ft 371 kts 122°
2026-05-04 12:26 54.23029 -5.47159 25110 ft 371 kts 123°
2026-05-04 12:27 54.21532 -5.43620 25107 ft 371 kts 123°
2026-05-04 12:27 54.20011 -5.40041 25107 ft 371 kts 123°
2026-05-04 12:27 54.18490 -5.36460 25108 ft 371 kts 123°
2026-05-04 12:27 54.16977 -5.32893 25108 ft 371 kts 123°
2026-05-04 12:28 54.15462 -5.29324 25117 ft 371 kts 123°
2026-05-04 12:28 54.13944 -5.25751 25116 ft 371 kts 123°
2026-05-04 12:28 54.12447 -5.22232 25123 ft 371 kts 123°
2026-05-04 12:28 54.10926 -5.18675 25126 ft 370 kts 123°
2026-05-04 12:29 54.09406 -5.15132 25127 ft 370 kts 123°
2026-05-04 12:29 54.07884 -5.11587 25126 ft 369 kts 123°
2026-05-04 12:29 54.06368 -5.08052 25125 ft 369 kts 123°
2026-05-04 12:29 54.04855 -5.04528 25121 ft 369 kts 123°
2026-05-04 12:30 54.03343 -5.01004 25122 ft 368 kts 123°
2026-05-04 12:30 54.01845 -4.97520 25121 ft 368 kts 123°
2026-05-04 12:30 54.00328 -4.94001 25120 ft 368 kts 123°
2026-05-04 12:30 53.98817 -4.90499 25119 ft 368 kts 123°
2026-05-04 12:31 53.97294 -4.86974 25118 ft 368 kts 123°
2026-05-04 12:31 53.95775 -4.83460 25101 ft 368 kts 123°
2026-05-04 12:31 53.94260 -4.79957 24823 ft 368 kts 123°
2026-05-04 12:31 53.92740 -4.76452 24341 ft 367 kts 123°
2026-05-04 12:32 53.91243 -4.73012 23884 ft 366 kts 123°
2026-05-04 12:32 53.88224 -4.66094 22912 ft 361 kts 124°
2026-05-04 12:32 53.86730 -4.62675 22464 ft 358 kts 124°
2026-05-04 12:33 53.85251 -4.59296 22023 ft 355 kts 124°
2026-05-04 12:33 53.83786 -4.55953 21593 ft 352 kts 124°
2026-05-04 12:33 53.82355 -4.52680 21157 ft 349 kts 124°
2026-05-04 12:33 53.81159 -4.49130 20716 ft 345 kts 111°
2026-05-04 12:34 53.80283 -4.45370 20301 ft 342 kts 110°
2026-05-04 12:34 53.79417 -4.41623 19884 ft 341 kts 110°
2026-05-04 12:34 53.78553 -4.37893 19465 ft 339 kts 110°
2026-05-04 12:34 53.77690 -4.34183 19051 ft 338 kts 110°
2026-05-04 12:35 53.76837 -4.30539 18648 ft 337 kts 110°
2026-05-04 12:35 53.75972 -4.26858 18226 ft 336 kts 111°
2026-05-04 12:35 53.75109 -4.23186 17801 ft 334 kts 111°
2026-05-04 12:35 53.74250 -4.19531 17400 ft 332 kts 111°
2026-05-04 12:36 53.73408 -4.15965 17016 ft 330 kts 111°
2026-05-04 12:36 53.72548 -4.12321 16618 ft 328 kts 111°
2026-05-04 12:36 53.71706 -4.08745 16237 ft 327 kts 111°
2026-05-04 12:36 53.70876 -4.05227 15866 ft 326 kts 112°
2026-05-04 12:37 53.69875 -4.01808 15479 ft 324 kts 121°
2026-05-04 12:37 53.68716 -3.98562 15111 ft 323 kts 124°
2026-05-04 12:37 53.67255 -3.95702 14827 ft 318 kts 134°
2026-05-04 12:37 53.65727 -3.93057 14625 ft 312 kts 134°
2026-05-04 12:38 53.64229 -3.90495 14333 ft 309 kts 135°
2026-05-04 12:38 53.62721 -3.87920 14014 ft 308 kts 135°
2026-05-04 12:38 53.61220 -3.85353 13664 ft 307 kts 135°
2026-05-04 12:38 53.59724 -3.82799 13310 ft 305 kts 135°
2026-05-04 12:39 53.58234 -3.80256 12954 ft 303 kts 135°
2026-05-04 12:39 53.56761 -3.77744 12598 ft 302 kts 135°
2026-05-04 12:39 53.55447 -3.75049 12241 ft 300 kts 123°
2026-05-04 12:39 53.54372 -3.72050 11885 ft 299 kts 120°
2026-05-04 12:40 53.53337 -3.69029 11514 ft 298 kts 120°
2026-05-04 12:40 53.52306 -3.66011 11151 ft 296 kts 120°
2026-05-04 12:40 53.51282 -3.63013 10788 ft 295 kts 120°
2026-05-04 12:40 53.50289 -3.60111 10435 ft 293 kts 120°
2026-05-04 12:41 53.49268 -3.57144 10048 ft 293 kts 120°
2026-05-04 12:41 53.48252 -3.54206 9663 ft 291 kts 120°
2026-05-04 12:41 53.47235 -3.51269 9273 ft 289 kts 120°
2026-05-04 12:41 53.46222 -3.48360 8874 ft 288 kts 120°
2026-05-04 12:42 53.45210 -3.45465 8488 ft 286 kts 120°
2026-05-04 12:42 53.44210 -3.42617 8107 ft 284 kts 120°
2026-05-04 12:42 53.43216 -3.39783 7725 ft 281 kts 120°
2026-05-04 12:42 53.42239 -3.37006 7326 ft 270 kts 120°
2026-05-04 12:43 53.41306 -3.34353 6947 ft 259 kts 120°
2026-05-04 12:43 53.40400 -3.31790 6552 ft 250 kts 120°
2026-05-04 12:43 53.39523 -3.29325 6143 ft 243 kts 120°
2026-05-04 12:43 53.38674 -3.26954 5732 ft 239 kts 120°
2026-05-04 12:44 53.37812 -3.24581 5320 ft 237 kts 120°
2026-05-04 12:44 53.36962 -3.22237 4923 ft 234 kts 120°
2026-05-04 12:44 53.36121 -3.19938 4496 ft 229 kts 120°
2026-05-04 12:44 53.35302 -3.17671 4085 ft 225 kts 120°
2026-05-04 12:45 53.34506 -3.15435 3677 ft 222 kts 120°
2026-05-04 12:45 53.33735 -3.13256 3353 ft 216 kts 120°
2026-05-04 12:45 53.32995 -3.11143 3040 ft 208 kts 120°
2026-05-04 12:45 53.32406 -3.09035 2764 ft 199 kts 103°
2026-05-04 12:46 53.32331 -3.06803 2519 ft 195 kts 84°
2026-05-04 12:46 53.32442 -3.04540 2281 ft 194 kts 85°
2026-05-04 12:46 53.32548 -3.02316 1990 ft 189 kts 85°
2026-05-04 12:46 53.32650 -3.00176 1730 ft 180 kts 84°
2026-05-04 12:47 53.32747 -2.98143 1490 ft 171 kts 85°
2026-05-04 12:47 53.32835 -2.96279 1266 ft 151 kts 85°
2026-05-04 12:47 53.32914 -2.94589 1062 ft 142 kts 84°
2026-05-04 12:47 53.32990 -2.92971 861 ft 138 kts 84°
2026-05-04 12:48 53.33065 -2.91370 666 ft 139 kts 84°
2026-05-04 12:48 53.33139 -2.89761 479 ft 139 kts 84°
2026-05-04 12:48 53.33212 -2.88176 311 ft 139 kts 84°
2026-05-04 12:48 53.33290 -2.86582 125 ft 139 kts 85°
2026-05-04 12:49 53.33357 -2.85127 90 ft 96 kts 86°
2026-05-04 12:49 53.33391 -2.84389 89 ft 50 kts 85°
2026-05-04 12:49 53.33415 -2.83861 91 ft 39 kts 85°
2026-05-04 12:49 53.33475 -2.83627 91 ft 14 kts 352°
2026-05-04 12:50 53.33570 -2.83642 89 ft 13 kts 341°
2026-05-04 12:50 53.33586 -2.83775 89 ft 13 kts 265°
2026-05-04 12:50 53.33578 -2.83933 89 ft 14 kts 265°
2026-05-04 12:50 53.33571 -2.84095 90 ft 15 kts 265°
2026-05-04 12:51 53.33563 -2.84271 89 ft 16 kts 265°
2026-05-04 12:51 53.33554 -2.84457 92 ft 16 kts 265°
2026-05-04 12:51 53.33544 -2.84654 89 ft 17 kts 265°
2026-05-04 12:51 53.33534 -2.84861 91 ft 18 kts 266°
2026-05-04 12:52 53.33525 -2.85074 92 ft 19 kts 265°
2026-05-04 12:52 53.33516 -2.85265 89 ft 14 kts 266°
2026-05-04 12:52 53.33509 -2.85434 90 ft 15 kts 265°
2026-05-04 12:52 53.33549 -2.85507 89 ft 9 kts
2026-05-04 12:53 53.33606 -2.85504 89 ft 7 kts 32°
2026-05-04 12:53 53.33626 -2.85449 89 ft 5 kts 49°
2026-05-04 12:53 53.33660 -2.85439 91 ft 4 kts
2026-05-04 12:53 53.33669 -2.85439 90 ft 0 kts 358°